Flight Track Log - Related Links

Times and Time Zones

All times are in EDT time to prevent confusion due to time zone crossing. See the N40BZ flight status page for this flight to view local times or setup timezone preferences in your user account.

Time Position Orientation Groundspeed Altitude Reporting Facility
EDT Latitude Longitude Course Direction KTS MPH feet Rate Location/Type
Sat 16:09:19 44.7667 -78.6000 180° South 170 196 6,900  Level Toronto Center
Sat 16:10:19 44.7167 -78.6000 180° South 170 196 6,900 50 Level Toronto Center
Sat 16:11:19 44.6833 -78.6000 180° South 160 184 7,000 50 Climbing Toronto Center
Sat 16:12:19 44.6333 -78.6000 180° South 160 184 7,000  Level Toronto Center
Sat 16:14:19 44.5500 -78.6000 180° South 160 184 7,000  Level Toronto Center
Sat 16:15:19 44.5000 -78.6000 180° South 160 184 7,000  Level Toronto Center
Sat 16:16:19 44.4500 -78.6000 180° South 160 184 7,000  Level Toronto Center
Sat 16:17:19 44.4167 -78.6000 180° South 160 184 7,000  Level Toronto Center
Sat 16:18:19 44.3667 -78.6000 180° South 150 173 7,000  Level Toronto Center
Sat 16:19:19 44.3333 -78.6333 216° Southwest 160 184 7,000  Level Toronto Center
Sat 16:20:19 44.2833 -78.6333 180° South 160 184 7,000  Level Toronto Center
Sat 16:21:19 44.2500 -78.6333 180° South 150 173 7,000  Level Toronto Center
Sat 16:22:19 44.2000 -78.6333 180° South 150 173 7,000  Level Toronto Center
Sat 16:23:19 44.1500 -78.6333 180° South 150 173 7,000  Level Toronto Center
Sat 16:24:19 44.1167 -78.6333 180° South 150 173 7,000  Level Toronto Center
Sat 16:25:19 44.0667 -78.6500 193° South 160 184 7,000  Level Toronto Center
Sat 16:26:19 44.0333 -78.6667 200° South 160 184 7,000  Level Toronto Center
Sat 16:27:19 43.9833 -78.6833 193° South 160 184 7,000  Level Toronto Center
Sat 16:28:19 43.9500 -78.7000 200° South 160 184 7,000  Level Toronto Center
Sat 16:29:19 43.9000 -78.7333 206° Southwest 160 184 7,000  Level Toronto Center
Sat 16:30:19 43.8667 -78.7500 200° South 160 184 7,000  Level Toronto Center
Sat 16:31:19 43.8167 -78.7500 180° South 160 184 7,000  Level Toronto Center
Sat 16:32:19 43.7833 -78.7833 216° Southwest 160 184 7,000  Level Toronto Center
Sat 16:33:19 43.7333 -78.8000 194° South 160 184 7,000  Level Toronto Center
Sat 16:34:19 43.7000 -78.8000 180° South 150 173 7,000  Level Toronto Center
Sat 16:35:19 43.6500 -78.8000 180° South 150 173 7,000  Level Toronto Center
Sat 16:36:19 43.6167 -78.8000 180° South 150 173 7,000  Level Toronto Center
Sat 16:37:19 43.5667 -78.8000 180° South 150 173 7,000  Level Toronto Center
Sat 16:38:19 43.5167 -78.7833 166° South 150 173 7,000  Level Toronto Center
Sat 16:39:19 43.4833 -78.7833 180° South 150 173 7,000  Level Toronto Center
Sat 16:40:19 43.4500 -78.7833 180° South 150 173 7,000 50 Level Toronto Center
Sat 16:41:19 43.4000 -78.7833 180° South 150 173 7,100 50 Climbing Toronto Center
Sat 16:42:19 43.3667 -78.7667 160° South 150 173 7,100  Level Toronto Center
Sat 16:43:19 43.3167 -78.7667 180° South 150 173 7,100  Level Toronto Center
Sat 16:44:19 43.2833 -78.7667 180° South 150 173 7,100 -500 Level Toronto Center
Sat 16:45:19 43.2333 -78.7667 180° South 160 184 6,100 -600 Descending Toronto Center
Sat 16:46:19 43.2000 -78.7833 200° South 160 184 5,900 -500 Descending Toronto Center
Sat 16:47:19 43.1500 -78.7833 180° South 160 184 5,100 -550 Descending Toronto Center
Sat 16:48:19 43.1167 -78.8167 216° Southwest 160 184 4,800 -550 Descending Toronto Center
Sat 16:49:19 43.0667 -78.8333 194° South 170 196 4,000 -550 Descending Toronto Center
Sat 16:50:19 43.0333 -78.8500 200° South 160 184 3,700 -467 Descending Toronto Center
Sat 16:52:19 42.9667 -78.8333 170° South 180 207 2,600 -733 Descending Toronto Center
Sat 16:53:19 42.9667 -78.7667 90° East 170 196 1,500 -777 Descending Toronto Center
Sat 16:54:38 42.9500 -78.7333 124° Southeast 93 107 800 -532 Descending Buffalo TRACON

Login

Don't have an account? Register now (free) for customized features, flight alerts, and more!